Вернуться в каталог

METEOR 2-11 DEB

АктивенPO
NORAD 40708·DEBRIS·🇷🇺 Russia

Запущен Jul 5, 1984 с Plesetsk Cosmodrome

Loading…

Ближайшие Пролёты (ближайшие 24 часа)

TLE

СвежийSource: Space-Track

Эпоха: Sep 14, 2026, 10:43 UTC

1 40708U 84072K   26257.44653302 -.00000221  00000-0 -16473-3 0  9990
2 40708  82.5108 292.2011 0026645  54.0317 306.3316 13.98542365586518

Отслеживайте METEOR 2-11 DEB в реальном времени с AllMySat

Download on the App Store